Regional Weather Roundup
Issued by NWS

Home | Current Version | Previous Version | Graphics & Text | Print | Product List | Glossary On
Versions: 1 2 3 4 5 6 7 8 9 10 11 12 13 14 15 16 17 18 19 20 21 22 23 24 25 26 27 28 29 30 31 32 33 34 35 36 37 38 39 40 41 42 43 44 45 46 47 48 49 50
000
ASUS43 KDMX 050601
RWRIA

WEATHER ROUNDUP FOR IOWA
NATIONAL WEATHER SERVICE DES MOINES IA
1200 AM CST MON DEC 05 2016

NOTE: "FAIR" INDICATES FEW OR NO CLOUDS BELOW 12,000 FEET WITH NO
SIGNIFICANT WEATHER AND/OR OBSTRUCTIONS TO VISIBILITY.

* - THESE STATIONS ARE NOT NWS STATIONS...THUS NOT UNDER NWS
QUALITY CONTROL.  THEY ALSO DO NOT REPORT WEATHER SUCH
AS PRECIPITATION OR FOG.

IAZ001>003-012>014-020>022-031>034-043>046-050700-
   NORTHWEST IOWA

CITY           SKY/WX    TMP DP  RH WIND       PRES   REMARKS
CARROLL *      CLEAR     34  34 100 SW14      29.86F WCI  24
CHEROKEE *     CLEAR     30  30 100 S7        29.84S WCI  24
DENISON *      CLEAR     32  30  93 S8        29.83F WCI  25
LE MARS *      PTCLDY    32  30  93 S6        29.82F WCI  26
ORANGE CITY *  CLEAR     30  30 100 S7        29.79F WCI  23
SHELDON *      CLEAR     30  30 100 S7        29.79S WCI  23
SIOUX CITY     CLEAR     31  30  96 SE9       29.82F WCI  23
6HR MIN TEMP:  29; 6HR MAX TEMP:  38;

SPENCER        CLEAR     32  31  96 SW15      29.82S WCI  22
6HR MIN TEMP:  30; 6HR MAX TEMP:  33;

STORM LAKE *   CLEAR     32  30  93 S12       29.83F WCI  23
$$

IAZ055>058-069>071-079>083-090>094-050700-
   SOUTHWEST IOWA

CITY           SKY/WX    TMP DP  RH WIND       PRES   REMARKS
ATLANTIC *     CLEAR     28  28 100 S3        29.89F FOG
AUDUBON *      CLEAR     30  28  93 S7        29.89F WCI  23
CLARINDA *       N/A     32  32 100 S5        29.94F WCI  27
COUNCIL BLFS * CLEAR     32  30  93 S9        29.87F WCI  24
CRESTON *      CLEAR     30  30 100 SW8       29.93S FOG     WCI  23
HARLAN  *      CLEAR     30  30 100 CALM      29.91F FOG
LAMONI         FOG       31  30  96 S7        29.94S VSB 1/4 WCI  24
6HR MIN TEMP:  30; 6HR MAX TEMP:  36;

RED OAK *      CLEAR     32  32 100 CALM      29.91F
SHENANDOAH *   CLEAR     30  30 100 S5        29.92F WCI  25
$$

IAZ047>049-059>061-072>074-084-050700-
   CENTRAL IOWA

CITY           SKY/WX    TMP DP  RH WIND       PRES   REMARKS
AMES           CLEAR     30  30 100 CALM      29.90F
6HR MIN TEMP:  28; 6HR MAX TEMP:  32;

ANKENY *       CLEAR     34 N/A N/A S5        29.92F WCI  30
BOONE *        CLEAR     32  32 100 SW8       29.88F WCI  25
CHARITON *       N/A     34  32  93 SW12      29.93F FOG     WCI  25
DES MOINES     CLEAR     31  29  92 S7        29.92F FOG     WCI  24
6HR MIN TEMP:  31; 6HR MAX TEMP:  36;

GRINNELL*      CLEAR     32  32  99 SW10      29.92F FOG     WCI  24
KNOXVILLE *    CLEAR     34  32  93 S8        29.92F WCI  27
MARSHALLTOWN   CLEAR     31  31 100 SW8       29.90F FOG     WCI  23
6HR MIN TEMP:  31; 6HR MAX TEMP:  33;

NEWTON *       CLEAR     32  30  93 SW8       29.92F FOG     WCI  25
PELLA *        CLEAR     33  32  96 S6        29.95F FOG     WCI  27
PERRY *          N/A     33  32  97 CALM      29.89F
$$

IAZ004>006-015-016-023>025-035-036-050700-
   NORTH CENTRAL IOWA

CITY           SKY/WX    TMP DP  RH WIND       PRES   REMARKS
ALGONA *       CLEAR     32  32 100 S10       29.83F WCI  24
CLARION *      MOCLDY    30  30 100 S8        29.87S FOG     WCI  23
ESTHERVILLE    CLEAR     31  30  96 S6        29.81F WCI  25
6HR MIN TEMP:  31; 6HR MAX TEMP:  34;

FORT DODGE *   CLEAR     30  27  86 SW5       29.87S WCI  25
MASON CITY     CLEAR     32  31  96 SW10      29.86F WCI  24
6HR MIN TEMP:  32; 6HR MAX TEMP:  34;

WEBSTER CITY * CLEAR     30  30 100 S8        29.86S FOG     WCI  23
IOWA FALLS *     N/A     32  31  96 SW9       29.89F FOG     WCI  24
$$

IAZ007>011-017>019-026>030-037>042-050>054-066-050700-
   NORTHEAST IOWA

CITY           SKY/WX    TMP DP  RH WIND       PRES   REMARKS
CEDAR RAPIDS   CLOUDY    34  34 100 SW12      29.94R WCI  25
6HR MIN TEMP:  32; 6HR MAX TEMP:  34;

CHARLES CITY * CLOUDY    32  32 100 SW9       29.87S FOG     WCI  24
CLINTON *      CLOUDY    33  32  96 W14       29.96R WCI  23
DECORAH *      FOG       32  32 100 VRB6G14   29.86R VSB 3/4 WCI  26
DUBUQUE        CLOUDY    31  30  96 SW13      29.91F FOG     WCI  21
6HR MIN TEMP:  31; 6HR MAX TEMP:  32;

MONTICELLO *   CLOUDY    34  32  93 SW10      29.93F FOG     WCI  26
OELWEIN *      CLOUDY    32  32 100 SW10      29.90S FOG     WCI  24
WATERLOO       PTCLDY    32  30  92 SW9       29.90S FOG     WCI  24
6HR MIN TEMP:  32; 6HR MAX TEMP:  33;

$$

IAZ064-065-067-068-078-050700-
   EAST CENTRAL IOWA

CITY           SKY/WX    TMP DP  RH WIND       PRES   REMARKS
DAVENPORT      CLOUDY    34  31  88 W14       29.97R WCI  25
6HR MIN TEMP:  32; 6HR MAX TEMP:  34;

IOWA CITY      CLOUDY    35  32  88 SW8       29.98S WCI  29
6HR MIN TEMP:  34; 6HR MAX TEMP:  36;

MUSCATINE *    CLOUDY    36  32  87 W7        29.99F WCI  30
QUAD CITIES    CLOUDY    35  31  85 W10       29.97R WCI  27
6HR MIN TEMP:  34; 6HR MAX TEMP:  35;

$$

IAZ062-063-075>077-085>089-095>099-050700-
   SOUTHEAST IOWA

CITY           SKY/WX    TMP DP  RH WIND       PRES   REMARKS
BURLINGTON     CLOUDY    34  33  96 W9        29.99R WCI  27
6HR MIN TEMP:  32; 6HR MAX TEMP:  34;

FAIRFIELD *    CLOUDY    34  32  93 W6        29.97F FOG     WCI  29
FORT MADISON * CLOUDY    36  34  93 W7        30.00R WCI  30
KEOKUK *       CLOUDY    36  34  93 SW7       29.99S WCI  30
OSKALOOSA *    CLOUDY    33  32  97 S7        29.95F FOG     WCI  27
CENTERVILLE *  CLOUDY    32  32 100 SW6       29.96F FOG     WCI  26
OTTUMWA        CLOUDY    35  32  88 SW8       29.95F WCI  29
6HR MIN TEMP:  34; 6HR MAX TEMP:  36;

WASHINGTON *   CLOUDY    34  34 100 W12       29.98S WCI  25
$$

ABBREVIATIONS USED IN REMARKS
   TC - TEMPERATURES IN CELSIUS
  WCI - WIND CHILL INDEX
   HX - HEAT INDEX
  VSB - VISIBILITY
$$





USA.gov is the U.S. government's official web portal to all federal, state and local government web resources and services.